Weather History for Denver, CO

Change the Weather History Date:

Friday, July 5, 2013

  Actual Average Record
Temperature  
Mean Temperature 78 °F 73 °F  
Max Temperature 92 °F 88 °F 101 °F (1989)
Min Temperature 64 °F 57 °F 43 °F (1972)
Degree Days  
Heating Degree Days 0 0  
Month to date heating degree days 0 1  
Since 1 June heating degree days 29 63  
Since 1 July heating degree days 0 1  
Cooling Degree Days 13 8  
Month to date cooling degree days 43 39  
Year to date cooling degree days 306 194  
Since 1 June cooling degree days 264 172  
Growing Degree Days 28 (Base 50)    
Moisture  
Dew Point 47 °F    
Average Humidity 39    
Maximum Humidity 57    
Minimum Humidity 21    
Precipitation  
Precipitation T in 0.06 in 1.04 in (1900)
Month to date precipitation 0.10 0.28  
Year to date precipitation 6.09 7.79  
Snow  
Snow 0.00 in - - ()
Month to date snowfall 0  
Since 1 June snowfall 0  
Since 1 July snowfall 0  
Snow Depth 0.00 in    
Sea Level Pressure  
Sea Level Pressure 29.70 in    
Wind  
Wind Speed 9 mph (WSW)    
Max Wind Speed 24 mph    
Max Gust Speed 32 mph    
Visibility 10 miles    
Events Thunderstorm    
T = Trace of Precipitation, MM = Missing Value Source: NWS Daily Summary

Daily Weather History Graph

Daily Weather History Graph

Search for Another Location

Airport:

Trip Planner

Search our weather history database for the weather conditions in past years. The results will help you decide how hot, cold, wet, or windy it might be!

Date:

Astronomy

Jul. 05, 2013 Rise Set
Actual Time 5:36 AM MDT 8:30 PM MDT
Civil Twilight 5:03 AM MDT 9:02 PM MDT
Nautical Twilight 4:23 AM MDT 9:43 PM MDT
Astronomical Twilight 3:35 AM MDT 10:30 PM MDT
Moon 3:37 AM MDT (7/5) 6:27 PM MDT (7/5)
Length of Visible Light 15h 58m
Length of Day
14h 53m
Waning Crescent, 6% of the Moon is Illuminated
Jul 5
Waning Crescent
Jul 8
New
Jul 15
First Quarter
Jul 22
Full
Jul 29
Last Quarter

Hourly Weather History & Observations

Time (MDT) Temp. Dew Point Humidity Pressure Visibility Wind Dir Wind Speed Gust Speed Precip Events Conditions
12:53 AM 70.0 °F 43.0 °F 38% 29.68 in 10.0 mi SSW 6.9 mph - N/A   Scattered Clouds
1:53 AM 69.1 °F 43.0 °F 39% 29.68 in 10.0 mi SSW 8.1 mph - N/A   Scattered Clouds
2:53 AM 70.0 °F 43.0 °F 38% 29.67 in 10.0 mi SSW 10.4 mph - N/A   Scattered Clouds
3:53 AM 66.9 °F 46.0 °F 47% 29.67 in 10.0 mi WSW 9.2 mph - N/A   Scattered Clouds
4:53 AM 64.9 °F 46.9 °F 52% 29.68 in 10.0 mi WSW 4.6 mph - N/A   Mostly Cloudy
5:53 AM 66.0 °F 46.0 °F 48% 29.69 in 10.0 mi WSW 6.9 mph - N/A   Mostly Cloudy
6:53 AM 68.0 °F 46.9 °F 47% 29.70 in 10.0 mi South 5.8 mph - N/A   Mostly Cloudy
7:53 AM 72.0 °F 48.9 °F 44% 29.72 in 10.0 mi SW 4.6 mph - 0.00 in   Mostly Cloudy
8:53 AM 73.9 °F 46.9 °F 38% 29.72 in 10.0 mi NNW 3.5 mph - N/A   Mostly Cloudy
9:53 AM 79.0 °F 46.9 °F 32% 29.70 in 10.0 mi NW 8.1 mph - N/A   Mostly Cloudy
10:53 AM 81.0 °F 45.0 °F 28% 29.68 in 10.0 mi SE 3.5 mph - N/A   Mostly Cloudy
11:53 AM 84.9 °F 45.0 °F 25% 29.67 in 10.0 mi Variable 3.5 mph - N/A   Scattered Clouds
12:53 PM 91.0 °F 46.0 °F 21% 29.64 in 10.0 mi North 4.6 mph - N/A   Mostly Cloudy
1:53 PM 88.0 °F 45.0 °F 22% 29.63 in 10.0 mi Calm Calm - N/A   Mostly Cloudy
2:53 PM 91.0 °F 46.0 °F 21% 29.61 in 10.0 mi North 5.8 mph 16.1 mph N/A   Mostly Cloudy
3:22 PM 89.6 °F 46.4 °F 22% 29.89 in 10.0 mi NW 12.7 mph - N/A Thunderstorm Thunderstorm
3:39 PM 87.8 °F 44.6 °F 22% 29.89 in 10.0 mi West 19.6 mph 27.6 mph N/A Thunderstorm Thunderstorm
3:53 PM 87.1 °F 46.0 °F 24% 29.63 in 10.0 mi WSW 16.1 mph 26.5 mph N/A Thunderstorm Thunderstorm
4:18 PM 86.0 °F 46.4 °F 25% 29.90 in 10.0 mi WNW 8.1 mph - N/A   Mostly Cloudy
4:53 PM 87.1 °F 50.0 °F 28% 29.65 in 10.0 mi NNW 19.6 mph 24.2 mph N/A   Mostly Cloudy
5:53 PM 79.0 °F 51.1 °F 38% 29.69 in 10.0 mi North 19.6 mph - N/A   Mostly Cloudy
6:53 PM 77.0 °F 50.0 °F 39% 29.69 in 10.0 mi North 15.0 mph - N/A   Mostly Cloudy
7:53 PM 75.0 °F 51.1 °F 43% 29.71 in 10.0 mi SE 10.4 mph - N/A   Mostly Cloudy
8:53 PM 73.9 °F 51.1 °F 45% 29.71 in 10.0 mi SW 6.9 mph - N/A   Mostly Cloudy
9:53 PM 72.0 °F 50.0 °F 46% 29.71 in 10.0 mi WSW 8.1 mph - N/A   Mostly Cloudy
10:53 PM 72.0 °F 51.1 °F 48% 29.69 in 10.0 mi SW 11.5 mph - N/A   Scattered Clouds
11:53 PM 70.0 °F 53.1 °F 55% 29.67 in 10.0 mi SSW 11.5 mph - N/A   Scattered Clouds